| time (UTC) | temp C | wind direction | speed KPH | gust KPH | rain 1hr cm | rain 24hr cm | rain mn cm | humidity % | barometer mb |
| 20260508100038 | 3 | 313 | 3.2 | 6.4 | 0.00 | 0.00 | 0.00 | 67 | 1009.6 |
| 20260508094536 | 3 | 259 | 3.2 | 4.8 | 0.00 | 0.00 | 0.00 | 66 | 1009.7 |
| 20260508093035 | 3 | 259 | 1.6 | 4.8 | 0.00 | 0.00 | 0.00 | 67 | 1009.6 |
| 20260508091538 | 4 | 253 | 1.6 | 3.2 | 0.00 | 0.00 | 0.00 | 65 | 1009.5 |
| 20260508090030 | 5 | 253 | 1.6 | 6.4 | 0.00 | 0.00 | 0.00 | 65 | 1009.6 |
| 20260508084528 | 4 | 234 | 3.2 | 9.7 | 0.00 | 0.00 | 0.00 | 67 | 1009.6 |
| 20260508083025 | 5 | 296 | 3.2 | 8.0 | 0.00 | 0.00 | 0.00 | 66 | 1009.4 |
| 20260508081522 | 6 | 263 | 8.0 | 16.1 | 0.00 | 0.00 | 0.00 | 65 | 1009.4 |
| 20260508080018 | 7 | 301 | 3.2 | 8.0 | 0.00 | 0.00 | 0.00 | 62 | 1009.2 |
| 20260508074518 | 6 | 254 | 1.6 | 4.8 | 0.00 | 0.00 | 0.00 | 64 | 1009.1 |
| 20260508073018 | 7 | 254 | 1.6 | 4.8 | 0.00 | 0.00 | 0.00 | 64 | 1009.1 |
| 20260508071513 | 8 | 311 | 1.6 | 6.4 | 0.00 | 0.00 | 0.00 | 60 | 1009.0 |
| 20260508070010 | 8 | 302 | 1.6 | 6.4 | 0.00 | 0.00 | 0.00 | 61 | 1008.9 |
| 20260508064508 | 8 | 273 | 1.6 | 4.8 | 0.00 | 0.00 | 0.00 | 63 | 1008.9 |
| 20260508063006 | 8 | 265 | 3.2 | 6.4 | 0.00 | 0.00 | 0.00 | 61 | 1008.9 |
| 20260508061505 | 8 | 304 | 3.2 | 4.8 | 0.00 | 0.00 | 0.00 | 62 | 1008.8 |
| 20260508060059 | 10 | 291 | 3.2 | 6.4 | 0.00 | 0.00 | 0.00 | 59 | 1008.8 |
| 20260508054559 | 11 | 298 | 3.2 | 11.3 | 0.00 | 0.00 | 0.00 | 57 | 1008.8 |
| 20260508053106 | 11 | 291 | 3.2 | 9.7 | 0.00 | 0.00 | 0.00 | 55 | 1008.8 |
| 20260508051606 | 12 | 298 | 1.6 | 6.4 | 0.00 | 0.00 | 0.00 | 55 | 1008.7 |
| 20260508050058 | 12 | 300 | 3.2 | 6.4 | 0.00 | 0.00 | 0.00 | 54 | 1008.8 |
| 20260508044607 | 13 | 284 | 4.8 | 9.7 | 0.00 | 0.00 | 0.00 | 51 | 1008.9 |
| 20260508043056 | 14 | 283 | 4.8 | 12.9 | 0.00 | 0.00 | 0.00 | 48 | 1008.7 |
| 20260508041556 | 15 | 275 | 8.0 | 17.7 | 0.00 | 0.00 | 0.00 | 47 | 1008.6 |
| 20260508040056 | 13 | 288 | 8.0 | 16.1 | 0.00 | 0.00 | 0.00 | 50 | 1008.6 |
| 20260508034555 | 13 | 295 | 4.8 | 8.0 | 0.00 | 0.00 | 0.00 | 51 | 1008.6 |
| 20260508033100 | 13 | 288 | 3.2 | 6.4 | 0.00 | 0.00 | 0.00 | 50 | 1008.5 |
| 20260508031556 | 15 | 285 | 3.2 | 9.7 | 0.00 | 0.00 | 0.00 | 46 | 1008.4 |
| 20260508030054 | 16 | 263 | 6.4 | 12.9 | 0.00 | 0.00 | 0.00 | 44 | 1008.1 |
| 20260508024603 | 16 | 309 | 6.4 | 11.3 | 0.00 | 0.00 | 0.00 | 43 | 1008.1 |
| 20260508023055 | 15 | 286 | 3.2 | 6.4 | 0.00 | 0.00 | 0.00 | 42 | 1007.8 |
| 20260508021555 | 16 | 307 | 1.6 | 9.7 | 0.00 | 0.00 | 0.00 | 36 | 1007.6 |
| 20260508020053 | 17 | 304 | 3.2 | 6.4 | 0.00 | 0.00 | 0.00 | 34 | 1007.3 |
| 20260508014552 | 18 | 330 | 4.8 | 14.5 | 0.00 | 0.00 | 0.00 | 31 | 1007.2 |
| 20260508013051 | 18 | 350 | 8.0 | 19.3 | 0.00 | 0.00 | 0.00 | 30 | 1007.1 |
| 20260508011605 | 18 | 346 | 8.0 | 14.5 | 0.00 | 0.00 | 0.00 | 31 | 1006.9 |
| 20260508010049 | 19 | 315 | 6.4 | 14.5 | 0.00 | 0.00 | 0.00 | 30 | 1007.0 |
| 20260508004556 | 20 | 355 | 12.9 | 20.9 | 0.00 | 0.00 | 0.00 | 27 | 1006.9 |
| 20260508003049 | 21 | 317 | 9.7 | 17.7 | 0.00 | 0.00 | 0.00 | 27 | 1006.9 |
| 20260508001551 | 20 | 284 | 11.3 | 25.7 | 0.00 | 0.00 | 0.00 | 28 | 1006.8 |
| 20260508000047 | 20 | 332 | 14.5 | 25.7 | 0.00 | 0.00 | 0.00 | 27 | 1007.0 |
| 20260507234553 | 20 | 323 | 14.5 | 22.5 | 0.00 | 0.00 | 0.00 | 27 | 1006.9 |
| 20260507233047 | 20 | 300 | 11.3 | 22.5 | 0.00 | 0.00 | 0.00 | 28 | 1006.9 |
| 20260507231550 | 21 | 319 | 9.7 | 20.9 | 0.00 | 0.00 | 0.00 | 29 | 1006.9 |
| 20260507230044 | 20 | 313 | 11.3 | 22.5 | 0.00 | 0.00 | 0.00 | 30 | 1006.9 |
| 20260507224544 | 20 | 307 | 11.3 | 30.6 | 0.00 | 0.00 | 0.00 | 29 | 1006.9 |
| 20260507223041 | 20 | 314 | 12.9 | 22.5 | 0.00 | 0.00 | 0.00 | 29 | 1007.0 |
| 20260507221539 | 20 | 323 | 11.3 | 24.1 | 0.00 | 0.00 | 0.00 | 30 | 1007.1 |
| 20260507220037 | 20 | 316 | 11.3 | 40.2 | 0.00 | 0.00 | 0.00 | 31 | 1007.3 |
| 20260507214536 | 20 | 319 | 9.7 | 29.0 | 0.00 | 0.00 | 0.00 | 31 | 1007.3 |
| 20260507213043 | 20 | 346 | 14.5 | 25.7 | 0.00 | 0.00 | 0.00 | 31 | 1007.5 |
| 20260507211536 | 20 | 333 | 14.5 | 27.4 | 0.00 | 0.00 | 0.00 | 30 | 1007.7 |
| 20260507210033 | 19 | 322 | 11.3 | 25.7 | 0.00 | 0.00 | 0.00 | 30 | 1007.8 |
| 20260507204532 | 20 | 325 | 12.9 | 22.5 | 0.00 | 0.00 | 0.00 | 30 | 1007.8 |
| 20260507203032 | 20 | 321 | 11.3 | 29.0 | 0.00 | 0.00 | 0.00 | 31 | 1007.7 |
| 20260507201530 | 19 | 323 | 11.3 | 25.7 | 0.00 | 0.00 | 0.00 | 32 | 1007.7 |
| 20260507200029 | 19 | 317 | 11.3 | 22.5 | 0.00 | 0.00 | 0.00 | 31 | 1007.5 |
| 20260507194531 | 19 | 317 | 9.7 | 20.9 | 0.00 | 0.00 | 0.00 | 32 | 1007.6 |
| 20260507193029 | 18 | 347 | 8.0 | 20.9 | 0.00 | 0.00 | 0.00 | 33 | 1007.6 |
| 20260507191527 | 19 | 328 | 14.5 | 25.7 | 0.00 | 0.00 | 0.00 | 31 | 1007.6 |
| 20260507190026 | 20 | 355 | 11.3 | 22.5 | 0.00 | 0.00 | 0.00 | 32 | 1007.7 |
| 20260507184523 | 19 | 323 | 12.9 | 22.5 | 0.00 | 0.00 | 0.00 | 33 | 1007.9 |
| 20260507183022 | 20 | 288 | 14.5 | 24.1 | 0.00 | 0.00 | 0.00 | 36 | 1008.1 |
| 20260507181521 | 19 | 336 | 9.7 | 27.4 | 0.00 | 0.00 | 0.00 | 35 | 1008.2 |
| 20260507180019 | 19 | 338 | 14.5 | 24.1 | 0.00 | 0.00 | 0.00 | 36 | 1008.3 |
| 20260507174517 | 19 | 319 | 9.7 | 22.5 | 0.00 | 0.00 | 0.00 | 39 | 1008.5 |
| 20260507173026 | 18 | 329 | 9.7 | 38.6 | 0.00 | 0.00 | 0.00 | 40 | 1008.7 |
| 20260507171515 | 18 | 360 | 14.5 | 27.4 | 0.00 | 0.00 | 0.00 | 39 | 1008.8 |
| 20260507170013 | 18 | 304 | 11.3 | 24.1 | 0.00 | 0.00 | 0.00 | 40 | 1008.8 |
| 20260507164509 | 17 | 351 | 11.3 | 25.7 | 0.00 | 0.00 | 0.00 | 41 | 1008.7 |
| 20260507163007 | 17 | 321 | 12.9 | 24.1 | 0.00 | 0.00 | 0.00 | 41 | 1008.9 |
| 20260507161517 | 17 | 294 | 8.0 | 16.1 | 0.00 | 0.00 | 0.00 | 42 | 1008.9 |
| 20260507160006 | 17 | 335 | 11.3 | 19.3 | 0.00 | 0.00 | 0.00 | 41 | 1009.1 |
| 20260507154502 | 16 | 339 | 6.4 | 22.5 | 0.00 | 0.00 | 0.00 | 44 | 1009.2 |
| 20260507153057 | 14 | 282 | 6.4 | 12.9 | 0.00 | 0.00 | 0.00 | 46 | 1009.3 |
| 20260507151553 | 13 | 306 | 4.8 | 11.3 | 0.00 | 0.00 | 0.00 | 45 | 1009.6 |
| 20260507150050 | 11 | 288 | 4.8 | 9.7 | 0.00 | 0.00 | 0.00 | 44 | 1009.6 |
| 20260507144613 | 10 | 209 | 4.8 | 11.3 | 0.00 | 0.00 | 0.00 | 43 | 1009.2 |
| 20260507143052 | 9 | 284 | 1.6 | 4.8 | 0.00 | 0.00 | 0.00 | 42 | 1009.7 |
| 20260507141610 | 8 | 309 | 0.0 | 1.6 | 0.00 | 0.00 | 0.00 | 40 | 1009.7 |
| 20260507140049 | 8 | 16 | 0.0 | 6.4 | 0.00 | 0.00 | 0.00 | 40 | 1009.8 |
| 20260507134549 | 8 | 12 | 4.8 | 9.7 | 0.00 | 0.00 | 0.00 | 40 | 1009.8 |
| 20260507133046 | 7 | 355 | 3.2 | 6.4 | 0.00 | 0.00 | 0.00 | 49 | 1009.7 |
| 20260507131546 | 7 | 198 | 0.0 | 0.0 | 0.00 | 0.00 | 0.00 | 50 | 1009.7 |
| 20260507130045 | 7 | 198 | 0.0 | 1.6 | 0.00 | 0.00 | 0.00 | 51 | 1009.5 |
| 20260507124543 | 6 | 198 | 1.6 | 4.8 | 0.00 | 0.00 | 0.00 | 51 | 1009.6 |
| 20260507123046 | 6 | 92 | 0.0 | 14.5 | 0.00 | 0.00 | 0.00 | 50 | 1009.1 |
| 20260507121541 | 6 | 50 | 1.6 | 4.8 | 0.00 | 0.00 | 0.00 | 52 | 1008.8 |
| 20260507120041 | 6 | 50 | 3.2 | 4.8 | 0.00 | 0.00 | 0.00 | 53 | 1009.1 |
| 20260507114540 | 5 | 288 | 8.0 | 17.7 | 0.00 | 0.00 | 0.00 | 58 | 1009.0 |
| 20260507113037 | 5 | 294 | 6.4 | 12.9 | 0.00 | 0.00 | 0.00 | 55 | 1008.4 |
| 20260507111543 | 5 | 297 | 4.8 | 11.3 | 0.00 | 0.00 | 0.00 | 56 | 1008.3 |
| 20260507110037 | 5 | 293 | 3.2 | 9.7 | 0.00 | 0.00 | 0.00 | 59 | 1008.3 |
| 20260507104536 | 5 | 265 | 6.4 | 14.5 | 0.00 | 0.00 | 0.00 | 58 | 1008.2 |
| 20260507103036 | 6 | 296 | 6.4 | 14.5 | 0.00 | 0.00 | 0.00 | 52 | 1007.9 |
| 20260507101543 | 5 | 301 | 3.2 | 6.4 | 0.00 | 0.00 | 0.00 | 54 | 1008.1 |